User: anonymous   Login
Location: Unspecified
(0.0000°N, 0.0000°E)
Time: 06:53:21
(UTC+00:00)
Language:

KUIPER-00028 - Orbit

View from above orbital plane
View from above orbital plane
View from above satellite
View from above satellite

Ground track
Ground track

The orbit is defined by the following mean orbital elements,

1 63741U          26145.61336632 +.00000000 +00000-0 +51262-4 0 00002
2 63741  51.9000 112.8942 0000691  64.0349 296.0685 14.79938853    00
Epoch (UTC): 25 May 2026 14:43:14
Eccentricity: 0.0000691
inclination: 51.9000°
perigee height: 629 km
apogee height: 630 km
right ascension of ascending node: 112.8942°
argument of perigee: 64.0349°
revolutions per day: 14.79938853
mean anomaly at epoch: 296.0685°

The dashed part of the orbit path shows where the satellite is in the earth's shadow,  

DLR